Location: Sand Canyon
(38.6177°N, 119.2463°W)
Time: 12:04:08
(UTC+00:00)

Cosmos 1263 - Pass Details

Date: 05 July 2020
Orbit: 384 x 1340 km, 82.9° (Epoch: 14 August)

Event Time Altitude Azimuth Distance (km) Brightness Sun altitude
Rises 12:03:04 0° 354° (N) 2,449 8.6 -6.6°
Reaches altitude 10° 12:05:13 10° 357° (N) 1,500 7.5 -6.3°
Maximum altitude 12:08:22 74° 82° (E) 411 4.4 -5.8°
Drops below altitude 10° 12:11:18 10° 169° (SSE) 1,403 6.7 -5.3°
Sets 12:13:16 0° 171° (S) 2,270 7.7 -5.0°
